Precipitable_Water
1.05 1.00 0.93 0.91 0.89 0.87 0.92 0.88 0.85 0.81 0.80 0.81 0.76 0.69 0.63 0.58 0.58 0.59 0.63 0.64 0.63 0.57
1.02 1.00 0.95 0.91 0.92 0.95 0.88 0.93 0.90 0.92 0.85 0.79 0.73 0.69 0.67 0.63 0.63 0.63 0.61 0.55 0.57 0.56
0.93 0.96 0.95 0.90 0.87 0.86 0.89 0.90 0.85 0.86 0.79 0.77 0.79 0.78 0.78 0.75 0.71 0.63 0.60 0.61 0.58 0.56
0.83 0.90 0.89 0.94 0.85 0.83 0.83 0.86 0.81 0.82 0.80 0.79 0.73 0.70 0.69 0.70 0.69 0.70 0.66 0.63 0.60 0.58
0.77 0.78 0.83 0.86 0.87 0.90 0.84 0.82 0.81 0.79 0.77 0.75 0.75 0.74 0.71 0.69 0.67 0.64 0.64 0.65 0.66 0.63
0.67 0.72 0.73 0.78 0.81 0.80 0.81 0.82 0.80 0.79 0.76 0.73 0.70 0.70 0.70 0.69 0.68 0.67 0.66 0.63 0.61 0.63
0.60 0.64 0.66 0.71 0.72 0.75 0.76 0.76 0.76 0.77 0.77 0.76 0.75 0.73 0.73 0.72 0.70 0.71 0.71 0.72 0.74 0.74
0.55 0.58 0.61 0.63 0.63 0.66 0.69 0.69 0.70 0.69 0.71 0.72 0.72 0.69 0.69 0.69 0.69 0.69 0.68 0.70 0.71 0.71
0.49 0.51 0.54 0.56 0.58 0.60 0.61 0.62 0.62 0.62 0.63 0.64 0.66 0.68 0.67 0.66 0.64 0.65 0.65 0.64 0.65 0.65
0.43 0.45 0.47 0.50 0.52 0.53 0.54 0.56 0.56 0.56 0.57 0.57 0.59 0.62 0.63 0.64 0.63 0.61 0.61 0.59 0.58 0.58
0.38 0.40 0.42 0.44 0.46 0.47 0.50 0.51 0.51 0.53 0.54 0.55 0.57 0.59 0.59 0.58 0.57 0.55 0.56 0.55 0.55 0.55
0.34 0.36 0.38 0.39 0.41 0.43 0.45 0.47 0.48 0.50 0.51 0.52 0.54 0.55 0.54 0.54 0.54 0.53 0.52 0.52 0.52 0.50
0.31 0.33 0.34 0.36 0.37 0.40 0.41 0.43 0.45 0.45 0.48 0.49 0.49 0.54 0.52 0.51 0.50 0.47 0.46 0.46 0.45 0.44
0.29 0.30 0.32 0.33 0.35 0.36 0.38 0.39 0.40 0.41 0.43 0.45 0.46 0.48 0.49 0.49 0.46 0.42 0.39 0.38 0.37 0.37
Wind_Speed
47 46 44 45 45 43 42 41 39 38 37 37 35 35 34 33 32 31 31 31 30 28
45 45 44 45 45 45 44 42 41 40 39 38 36 36 36 35 35 34 33 33 32 31
43 44 44 44 44 44 43 43 41 41 39 39 39 39 39 37 36 36 35 34 34 33
39 42 44 43 43 43 43 42 41 41 40 40 40 39 40 40 39 38 37 36 36 35
35 38 37 42 40 40 40 42 41 40 40 40 41 41 41 40 40 40 39 37 36 35
32 31 34 36 38 41 40 41 40 40 40 39 39 40 41 41 41 40 39 38 38 37
28 27 32 33 35 36 37 37 38 40 40 39 38 39 40 40 38 39 39 39 40 40
25 29 32 31 32 34 34 35 35 35 36 37 38 38 38 37 38 38 38 38 37 37
23 24 25 27 29 30 31 33 34 36 36 37 37 37 37 37 36 36 34 34 33 33
21 23 26 27 28 29 30 31 32 32 32 33 33 34 34 33 33 32 33 33 33 32
20 21 22 23 24 26 28 28 29 29 29 28 29 30 30 30 31 30 30 30 30 30
18 19 20 21 23 24 25 26 28 28 28 27 28 29 29 29 28 28 28 28 28 27
19 20 21 21 22 23 24 25 26 27 28 28 27 28 28 27 26 26 26 26 27 27
19 20 20 21 22 23 25 26 27 27 27 28 28 27 27 27 27 27 26 26 26 26
Wind_Direction
222 223 223 222 221 223 222 223 224 224 226 226 226 225 227 226 228 226 227 228 231 234
221 221 222 222 222 223 224 224 224 226 226 226 227 228 228 230 231 229 232 233 234 237
220 221 221 221 222 221 223 223 225 226 228 229 230 230 231 231 231 232 235 235 236 239
219 220 220 221 222 221 223 224 226 228 229 230 231 232 231 232 233 234 235 238 239 241
221 218 214 217 220 219 222 223 227 230 232 231 232 233 233 233 234 235 237 237 239 239
217 214 217 218 219 222 225 227 230 232 231 231 234 233 235 235 235 236 236 237 237 238
214 213 215 220 217 220 224 227 231 231 230 232 233 234 234 233 234 233 237 240 241 242
217 216 218 219 223 223 225 226 226 226 229 230 232 234 232 233 234 236 237 238 239 241
218 217 215 218 221 222 223 225 228 231 232 232 234 232 231 231 233 231 232 234 234 237
225 226 225 226 224 226 227 228 228 228 228 228 228 227 227 228 228 229 232 234 237 239
232 229 227 225 225 225 225 223 223 223 223 223 222 222 223 224 227 230 232 232 233 235
237 233 230 229 228 226 224 223 223 222 220 221 222 222 223 224 225 226 227 227 229 231
240 237 235 233 230 228 225 224 223 223 223 223 223 222 221 221 222 222 224 227 230 233
240 237 235 234 232 231 229 227 225 223 224 223 222 221 221 223 225 225 225 229 231 234